Probability
0 0 0 0 0 0 0 0 0 0 0 0 0 0 0 0 0 0 0 0 0 0 0 0 0 0 0 0 0 0 0 0 0 0 0 0 0 0 0 0 0 0 0 0
0 0 0 0 0 0 0 0 0 0 0 0 0 0 0 0 0 0 0 0 0 0 0 0 0 0 0 0 0 0 0 0 0 0 0 0 0 0 0 0 0 0 0 0
0 0 0 0 0 0 0 0 0 0 0 0 0 0 0 0 0 0 0 0 0 0 0 0 0 0 0 0 0 0 0 0 0 0 0 0 0 0 0 0 0 0 0 0
0 0 0 0 0 0 0 0 0 0 0 0 0 0 0 0 0 0 0 0 0 0 0 0 0 0 0 0 0 0 0 0 0 0 0 0 0 0 0 0 0 0 0 0
0 0 0 0 0 0 0 0 0 0 0 0 0 0 0 0 0 0 0 0 0 0 0 0 0 0 0 0 0 0 0 0 0 0 0 0 0 0 0 0 0 0 0 0
0 0 0 0 0 0 0 0 0 0 0 0 0 0 0 0 0 0 0 0 0 0 0 0 0 0 0 0 0 0 0 0 0 0 0 0 0 0 0 0 0 0 0 0
0 0 0 0 0 0 0 0 0 0 0 0 0 0 0 0 0 0 0 0 0 0 0 0 0 0 0 0 0 0 0 0 0 0 0 0 0 0 0 0 0 0 0 0
0 0 0 0 0 0 0 0 0 0 0 0 0 0 0 0 0 0 0 0 0 0 0 0 0 0 0 0 0 0 0 0 0 0 0 0 0 0 0 0 0 0 0 0
0 0 0 0 0 0 0 0 0 0 0 0 0 0 0 0 0 0 0 0 0 0 0 0 0 0 0 0 0 0 0 0 0 0 0 0 0 0 0 0 0 0 0 0
0 0 0 0 0 0 0 0 0 0 0 0 0 0 0 0 0 0 0 0 0 0 0 0 0 0 0 0 0 0 0 0 0 0 0 0 0 0 0 0 0 0 0 0
0 0 0 0 0 0 0 0 0 0 0 0 0 0 0 0 0 0 0 0 0 0 0 0 0 0 0 0 0 0 0 0 0 0 0 0 0 0 0 0 0 0 0 0
0 0 0 0 0 0 0 0 0 0 0 0 0 0 0 0 0 0 0 0 0 0 0 0 0 0 0 0 0 0 0 0 0 0 0 0 0 0 0 0 0 0 0 0
0 0 0 0 0 0 0 0 0 0 0 0 0 0 0 0 0 0 0 0 0 0 0 0 0 0 0 0 0 0 0 0 0 0 0 0 0 0 0 0 0 0 0 0
0 0 0 0 0 0 0 0 0 0 0 0 0 0 0 0 0 0 0 0 0 0 0 0 0 0 0 0 0 0 0 0 0 0 0 0 0 0 0 0 0 0 0 0
0 0 0 0 0 0 0 0 0 0 0 0 0 0 0 0 0 0 0 0 0 0 0 0 0 0 0 0 0 0 0 0 0 0 0 0 0 0 0 0 0 0 0 0
0 0 0 0 0 0 0 0 0 0 0 0 0 0 0 0 0 0 0 0 0 0 0 0 0 0 0 0 0 0 0 0 0 0 0 0 0 0 0 0 0 0 0 0
0 0 0 0 0 0 0 0 0 0 0 0 0 0 0 0 0 0 0 0 0 0 0 0 0 0 0 0 0 0 0 0 0 0 0 0 0 0 0 0 0 0 0 0
0 0 0 0 0 0 0 0 0 0 0 0 0 0 0 0 0 0 0 0 0 0 0 0 0 0 0 0 0 0 0 0 0 0 0 0 0 0 0 0 0 0 0 0
0 0 0 0 0 0 0 0 0 0 0 0 0 0 0 0 0 0 0 0 0 0 0 0 0 0 0 0 0 0 0 0 0 0 0 0 0 0 0 0 0 0 0 0
0 0 0 0 0 0 0 0 0 0 0 0 0 0 0 0 0 0 0 0 0 0 0 0 0 0 0 0 0 0 0 0 0 0 0 0 0 0 0 0 0 0 0 0
0 0 0 0 0 0 0 0 0 0 0 0 0 0 0 0 0 0 0 0 0 0 0 0 0 0 0 0 0 0 0 0 0 0 0 0 0 0 0 0 0 0 0 0
0 0 0 0 0 0 0 0 0 0 0 0 0 0 0 0 0 0 0 0 0 0 0 0 0 0 0 0 0 0 0 0 0 0 0 0 0 0 0 0 0 0 0 0
0 0 0 0 0 0 0 0 0 0 0 0 0 0 0 0 0 0 0 0 0 0 0 0 0 0 0 0 0 0 0 0 0 0 0 0 0 0 0 0 0 0 0 0
0 0 0 0 0 0 0 0 0 0 0 0 0 0 0 0 0 0 0 0 0 0 0 0 0 0 0 0 0 0 0 0 0 0 0 0 0 0 0 0 0 0 0 0
0 0 0 0 0 0 0 0 0 0 0 0 0 0 0 0 0 0 0 0 0 0 0 0 0 0 0 0 0 0 0 0 0 0 0 0 0 0 0 0 0 0 0 0
0 0 0 0 0 0 0 0 0 0 0 0 0 0 0 0 0 0 0 0 0 0 0 0 0 0 0 0 0 0 0 0 0 0 0 0 0 0 0 0 0 0 0 0
0 0 0 0 0 0 0 0 0 0 0 0 0 0 0 0 0 0 0 0 0 0 0 0 0 0 0 0 0 0 0 0 0 0 0 0 0 0 0 0 0 0 0 0
Height
5857 5851 5844 5838 5831 5824 5816 5809 5802 5795 5787 5777 5766 5755 5744 5731 5718 5703 5689 5674 5659 5644 5628 5611 5595 5580 5565 5549 5533 5517 5501 5485 5469 5452 5434 5415 5394 5372 5348 5326 5308 5295 5285 5279
5858 5851 5844 5837 5829 5821 5813 5805 5798 5790 5781 5771 5761 5749 5737 5725 5712 5698 5684 5669 5655 5639 5624 5608 5592 5577 5562 5547 5531 5515 5499 5484 5467 5450 5433 5414 5393 5371 5349 5329 5312 5299 5290 5284
5856 5849 5842 5834 5826 5818 5810 5801 5793 5784 5776 5765 5755 5744 5732 5719 5706 5693 5679 5665 5651 5636 5620 5604 5589 5575 5560 5545 5529 5514 5499 5483 5467 5450 5433 5414 5395 5374 5353 5334 5318 5305 5297 5291
5852 5846 5838 5834 5823 5814 5806 5797 5789 5779 5770 5760 5750 5738 5727 5715 5702 5689 5675 5661 5647 5631 5616 5601 5586 5571 5557 5542 5528 5514 5500 5484 5468 5452 5435 5418 5399 5380 5360 5341 5325 5313 5304 5298
5848 5841 5835 5828 5818 5809 5801 5794 5785 5775 5765 5754 5744 5733 5722 5710 5698 5685 5672 5658 5643 5628 5613 5599 5584 5570 5556 5542 5528 5515 5501 5486 5470 5455 5439 5422 5405 5386 5368 5350 5334 5322 5311 5304
5845 5838 5831 5826 5816 5805 5798 5789 5780 5770 5760 5750 5740 5730 5720 5707 5694 5681 5668 5654 5640 5626 5611 5596 5582 5569 5556 5543 5530 5517 5503 5488 5473 5458 5442 5426 5410 5392 5375 5359 5344 5331 5320 5312
5842 5835 5828 5821 5811 5803 5794 5787 5775 5765 5756 5746 5736 5726 5715 5703 5690 5677 5664 5651 5637 5623 5609 5595 5581 5568 5556 5543 5530 5517 5503 5489 5476 5462 5447 5431 5415 5399 5383 5368 5354 5341 5329 5320
5837 5830 5825 5816 5808 5801 5793 5782 5771 5761 5752 5742 5732 5721 5710 5699 5686 5674 5661 5648 5635 5621 5607 5593 5580 5567 5555 5543 5531 5518 5505 5492 5479 5466 5452 5437 5423 5408 5394 5379 5366 5353 5340 5329
5836 5831 5823 5814 5806 5798 5788 5778 5768 5757 5748 5737 5727 5717 5706 5695 5683 5671 5658 5645 5632 5619 5606 5593 5580 5567 5556 5544 5532 5519 5507 5495 5483 5471 5458 5445 5431 5418 5404 5391 5378 5364 5351 5340
5832 5826 5819 5811 5803 5794 5785 5774 5764 5754 5744 5733 5723 5713 5703 5691 5680 5668 5655 5643 5630 5617 5604 5592 5579 5567 5556 5544 5533 5521 5510 5498 5487 5475 5463 5451 5439 5426 5414 5401 5388 5375 5362 5351
5827 5821 5815 5808 5799 5790 5781 5770 5760 5750 5740 5729 5719 5709 5699 5688 5677 5665 5652 5640 5628 5615 5603 5591 5579 5567 5556 5545 5534 5523 5512 5502 5490 5479 5467 5456 5444 5433 5420 5408 5396 5384 5372 5361
5821 5816 5809 5802 5794 5786 5777 5767 5756 5746 5736 5726 5715 5706 5695 5685 5674 5662 5650 5638 5626 5614 5602 5590 5579 5567 5557 5546 5536 5526 5515 5505 5494 5483 5472 5460 5448 5437 5426 5415 5403 5392 5381 5370
5815 5810 5804 5797 5790 5782 5773 5763 5753 5742 5732 5722 5712 5702 5692 5682 5671 5659 5647 5636 5624 5613 5601 5590 5578 5567 5557 5547 5537 5527 5517 5507 5497 5486 5476 5465 5454 5443 5432 5421 5410 5400 5390 5379
5808 5804 5798 5792 5785 5777 5768 5758 5748 5738 5727 5718 5708 5698 5688 5678 5667 5656 5645 5634 5622 5611 5600 5589 5578 5568 5557 5547 5538 5528 5518 5508 5499 5489 5479 5469 5459 5448 5438 5428 5418 5408 5398 5388
5802 5797 5792 5786 5779 5772 5763 5754 5744 5733 5723 5713 5704 5694 5685 5675 5664 5653 5642 5631 5620 5610 5599 5588 5578 5568 5558 5548 5538 5529 5520 5510 5501 5491 5482 5472 5462 5453 5443 5434 5424 5414 5405 5395
5795 5791 5786 5780 5774 5766 5758 5749 5739 5729 5719 5709 5699 5690 5681 5671 5661 5650 5640 5629 5618 5608 5598 5587 5577 5567 5557 5548 5538 5530 5521 5512 5503 5494 5484 5475 5466 5457 5447 5438 5429 5420 5411 5402
5787 5783 5778 5773 5767 5760 5752 5743 5734 5724 5714 5704 5695 5686 5676 5667 5657 5647 5637 5626 5616 5606 5596 5586 5576 5566 5557 5548 5539 5530 5521 5512 5503 5495 5486 5477 5468 5459 5450 5441 5432 5423 5415 5406
5778 5775 5771 5766 5760 5753 5746 5737 5728 5718 5708 5699 5690 5681 5672 5663 5654 5644 5634 5624 5614 5604 5594 5585 5575 5566 5556 5547 5539 5530 5521 5513 5504 5496 5488 5479 5470 5461 5452 5444 5435 5427 5418 5410
5769 5766 5763 5758 5752 5746 5739 5731 5722 5713 5703 5694 5685 5676 5668 5659 5650 5641 5631 5621 5611 5602 5592 5583 5574 5564 5555 5547 5538 5530 5521 5512 5504 5496 5488 5480 5471 5463 5454 5446 5438 5429 5421 5413
5760 5757 5754 5749 5744 5738 5731 5723 5715 5706 5697 5688 5680 5671 5663 5654 5646 5637 5627 5618 5608 5599 5590 5581 5572 5563 5554 5545 5537 5529 5520 5512 5504 5496 5488 5480 5472 5464 5456 5447 5439 5431 5423 5415
5749 5747 5744 5740 5735 5729 5723 5716 5708 5699 5691 5682 5674 5666 5658 5649 5641 5632 5623 5614 5605 5596 5587 5578 5570 5561 5552 5544 5536 5528 5520 5512 5504 5496 5488 5480 5472 5464 5456 5448 5440 5432 5425 5417
5738 5736 5733 5730 5725 5720 5714 5707 5700 5692 5684 5676 5668 5660 5652 5644 5636 5628 5619 5610 5601 5592 5584 5575 5567 5559 5550 5542 5534 5527 5519 5511 5504 5496 5488 5480 5472 5464 5456 5448 5440 5432 5425 5418
5726 5725 5722 5719 5715 5710 5705 5699 5692 5684 5677 5669 5661 5654 5646 5638 5631 5623 5615 5606 5597 5589 5580 5572 5564 5556 5548 5540 5532 5525 5517 5510 5503 5495 5487 5479 5472 5464 5456 5448 5440 5433 5426 5418
5714 5713 5711 5708 5704 5700 5695 5689 5683 5676 5669 5662 5655 5648 5640 5633 5625 5618 5610 5601 5593 5585 5577 5569 5561 5553 5545 5537 5530 5523 5515 5508 5501 5494 5486 5478 5471 5463 5455 5448 5440 5433 5426 5419
5701 5700 5699 5696 5693 5689 5685 5680 5674 5668 5661 5654 5647 5641 5634 5627 5620 5612 5605 5597 5589 5581 5573 5565 5558 5550 5543 5535 5527 5520 5513 5506 5499 5492 5485 5477 5470 5462 5455 5447 5440 5433 5426 5419
5688 5688 5686 5685 5682 5679 5675 5670 5664 5659 5652 5646 5640 5633 5627 5620 5613 5606 5599 5591 5584 5576 5569 5561 5554 5547 5539 5532 5524 5517 5511 5504 5497 5490 5483 5476 5469 5461 5454 5447 5440 5433 5426 5420
5674 5674 5673 5672 5670 5667 5663 5659 5654 5649 5643 5638 5631 5625 5619 5613 5607 5600 5593 5586 5578 5571 5564 5557 5550 5543 5536 5529 5521 5514 5508 5501 5495 5488 5482 5475 5467 5460 5453 5446 5440 5433 5426 5420
Wind_Speed
37 37 37 36 35 34 34 34 36 38 40 44 47 51 55 59 62 65 66 67 68 69 70 68 66 64 64 64 64 64 64 64 65 66 69 71 74 75 71 63 51 39 29 22
35 37 38 39 38 36 35 35 36 39 41 44 47 51 55 59 62 64 65 65 67 68 68 66 64 62 62 63 63 63 63 64 65 67 69 71 74 75 71 62 50 36 26 20
35 38 41 43 43 40 38 37 39 41 43 45 48 52 56 59 62 63 63 64 65 67 67 65 62 61 61 62 62 62 62 63 65 67 69 71 73 74 71 63 52 38 26 19
36 40 44 46 47 46 43 41 42 42 44 46 49 52 56 59 61 62 62 63 64 66 65 63 61 60 60 60 60 60 61 62 64 66 68 70 72 73 72 65 55 44 32 23
37 41 44 48 50 51 49 44 44 45 46 48 50 53 55 58 60 61 61 62 63 64 64 62 60 58 58 58 58 59 60 61 63 65 66 68 70 71 71 67 59 50 39 29
36 40 45 49 52 53 52 49 48 47 48 49 50 52 55 57 60 61 60 61 62 63 63 61 59 57 56 56 56 57 58 60 61 63 65 67 69 70 70 69 64 56 47 36
35 39 43 49 52 55 53 52 51 49 48 49 49 51 54 57 59 60 60 60 61 62 61 60 57 55 55 55 55 55 57 58 60 61 63 66 68 69 69 68 66 61 53 45
37 41 44 48 51 54 54 53 51 49 48 49 50 51 54 57 59 59 59 59 60 61 60 58 56 54 53 53 53 54 55 56 58 59 61 63 65 66 66 66 65 63 58 52
35 39 42 45 49 53 55 54 52 50 49 49 50 51 54 56 58 59 59 59 59 59 59 58 55 53 52 51 52 52 53 54 55 57 59 60 62 63 64 64 63 62 60 56
35 38 42 45 49 53 55 56 54 52 50 50 50 51 53 56 58 58 58 58 58 58 58 57 54 52 50 50 50 50 51 51 53 54 56 57 59 60 61 61 62 61 60 59
35 39 41 45 48 52 55 57 56 53 51 50 50 51 53 55 57 58 57 57 57 57 57 56 54 51 50 49 49 49 49 49 50 52 54 56 57 58 59 60 60 60 60 58
37 40 43 46 48 51 55 57 56 54 52 50 50 51 52 54 56 57 56 56 56 56 55 55 53 51 49 48 47 48 48 48 49 50 51 53 55 56 57 58 59 59 59 58
38 40 43 46 48 51 54 57 57 55 53 51 50 51 52 54 55 56 56 55 55 55 55 54 52 50 48 47 46 46 47 47 48 49 50 51 52 53 54 55 56 56 56 56
39 42 44 46 48 50 53 56 57 56 53 51 50 50 51 53 55 56 55 55 54 54 54 53 52 50 48 46 46 46 46 46 47 48 49 50 51 51 52 52 53 53 54 53
41 43 45 46 48 50 53 56 57 56 54 51 50 50 51 52 54 55 55 54 53 53 52 52 51 49 48 46 45 45 45 45 46 47 48 49 49 50 50 50 51 51 51 51
42 44 45 46 48 50 52 55 57 56 54 51 49 49 50 51 53 54 54 54 53 52 51 51 50 48 47 46 45 44 44 44 45 46 47 47 48 48 48 48 49 49 48 48
43 44 45 46 48 49 52 54 56 56 54 51 49 49 50 51 52 54 54 53 52 51 50 50 49 48 46 45 44 44 44 44 44 45 46 46 47 47 47 47 47 47 47 47
45 46 46 47 48 49 51 53 55 56 54 51 50 49 49 50 52 53 54 53 52 51 50 49 48 47 45 44 44 44 43 43 44 44 45 45 46 46 46 45 45 45 44 44
46 46 46 46 47 48 50 52 54 55 53 51 50 49 49 49 51 52 53 52 51 50 49 48 47 46 45 43 43 43 43 43 43 43 44 44 45 45 44 44 43 43 43 42
46 46 46 46 47 48 50 52 53 55 53 51 50 49 48 49 50 51 52 52 50 49 48 47 46 45 44 43 42 42 42 42 42 43 43 43 44 43 43 42 41 41 41 41
47 46 46 47 47 48 50 51 53 54 53 51 50 49 48 48 49 51 52 51 50 49 47 46 45 45 44 43 42 41 41 42 42 42 42 42 43 43 42 42 40 39 39 39
48 47 47 47 47 48 49 51 52 53 53 51 49 48 47 47 49 50 51 50 49 48 47 46 45 44 43 42 41 40 40 41 41 41 42 42 42 42 41 41 40 38 38 38
50 49 48 48 48 48 50 51 51 53 53 51 49 48 47 47 48 49 49 50 49 47 46 45 44 44 43 42 41 40 39 40 40 41 41 41 41 41 41 40 39 37 37 36
51 50 49 48 48 48 49 50 51 52 52 50 49 47 46 46 47 48 49 49 48 47 46 45 44 43 43 42 41 39 39 39 39 40 40 41 40 40 40 39 38 37 35 35
51 50 49 48 48 48 49 50 50 52 52 50 48 46 45 46 46 48 48 48 47 46 45 44 43 42 42 42 40 39 38 38 38 39 39 40 39 39 39 38 37 36 34 34
51 50 49 48 48 48 49 50 50 52 51 49 47 45 44 45 46 47 48 47 46 45 44 43 42 42 42 41 40 39 38 37 37 37 38 38 38 38 38 37 36 35 34 33
51 50 49 48 48 48 49 50 51 51 50 48 45 44 44 44 45 46 46 46 45 44 43 42 42 41 41 41 40 39 37 37 36 36 37 37 37 37 36 36 35 34 33 32
Wind_Direction
16 13 10 5 359 352 346 341 339 339 339 340 342 343 344 345 346 346 345 345 344 343 344 344 345 345 346 348 351 353 354 354 355 355 356 357 357 358 358 359 1 7 18 30
16 13 10 7 3 358 351 345 343 342 342 343 344 345 346 346 347 346 346 345 345 345 345 346 346 347 348 351 353 355 356 356 358 359 360 1 2 3 4 5 7 12 26 40
14 12 9 8 4 1 356 350 347 345 345 345 346 346 347 347 347 346 346 346 346 346 347 347 348 349 350 353 356 357 358 359 0 2 3 4 6 8 9 10 11 14 21 32
9 9 9 6 4 2 359 353 350 348 347 347 347 348 348 348 347 347 347 347 347 347 348 349 349 351 352 355 357 359 360 1 3 4 6 7 9 11 13 15 15 17 18 22
4 5 5 5 4 1 358 356 352 350 349 348 348 348 348 348 348 348 347 347 348 349 350 350 351 352 354 356 358 360 2 4 5 6 8 10 12 14 16 18 19 20 21 22
-0 1 1 1 2 360 357 356 353 351 349 349 348 348 348 348 349 348 348 348 349 350 351 352 353 353 355 357 359 1 3 6 7 8 9 11 14 16 18 20 22 23 23 22
356 357 358 359 359 358 356 353 352 350 349 348 348 348 348 349 349 349 349 349 350 351 352 353 354 355 356 358 360 2 5 8 9 9 11 13 15 18 19 21 23 24 25 24
352 354 355 355 355 355 354 353 351 349 348 348 348 348 349 350 350 350 350 350 351 352 354 354 355 356 357 359 0 3 5 8 10 11 12 14 16 18 20 22 23 25 26 27
347 349 350 350 352 353 353 352 350 348 348 347 348 348 349 350 350 350 351 351 352 353 354 355 356 357 358 359 1 4 6 8 10 12 13 15 17 19 21 22 24 26 27 28
341 344 347 347 349 350 351 351 350 348 347 347 348 348 349 350 350 351 351 352 352 353 355 356 357 357 358 359 1 4 6 8 9 11 13 15 17 19 20 22 24 26 27 28
336 339 342 344 346 348 349 350 349 347 347 347 347 348 349 350 351 351 352 352 353 354 355 356 357 358 358 359 1 4 6 8 9 11 12 14 16 18 19 21 23 25 27 28
331 335 338 341 343 345 347 348 348 347 346 346 346 347 348 350 351 351 352 352 353 354 355 356 357 358 358 359 1 3 6 8 10 11 12 14 15 16 18 20 22 23 25 26
325 330 334 336 339 342 344 346 347 346 345 345 346 346 348 349 350 351 352 352 353 354 355 356 357 358 358 359 0 2 5 7 9 11 12 14 15 16 16 18 20 22 23 25
320 324 329 332 335 339 341 344 345 345 344 344 344 345 347 348 350 351 352 352 353 353 354 355 356 357 358 359 359 1 3 6 8 9 11 13 14 15 16 17 18 19 21 23
314 319 324 328 331 335 338 342 344 344 343 343 343 344 346 347 349 351 351 352 352 353 354 354 356 357 358 358 359 360 1 4 5 7 9 11 12 13 14 15 16 17 19 20
308 313 318 323 327 331 335 339 342 343 343 343 343 343 344 346 348 350 351 351 352 352 353 354 355 356 357 358 358 358 359 1 3 5 6 8 10 10 11 12 13 15 16 18
303 309 314 319 324 328 332 336 340 342 341 341 342 342 343 345 347 349 350 351 351 351 352 353 353 354 355 357 357 357 358 359 0 2 3 5 7 8 9 10 11 11 13 14
298 304 310 315 320 324 329 333 337 340 340 340 340 341 341 343 345 348 349 350 350 350 351 351 352 353 354 355 356 356 357 357 358 359 0 2 3 5 6 7 8 9 10 11
294 300 306 311 316 321 326 330 334 338 339 339 339 339 340 341 344 346 348 348 349 349 350 350 351 352 352 353 354 355 356 356 356 357 358 359 1 2 3 4 6 7 8 9
290 296 302 308 313 317 323 328 332 336 337 337 337 338 338 340 342 344 346 347 348 348 348 349 350 350 351 352 353 354 354 355 355 355 356 357 358 359 1 2 4 5 6 7
288 294 300 305 310 314 320 325 329 333 335 335 335 336 336 338 340 343 345 346 346 347 347 347 348 349 350 350 351 352 353 354 354 354 354 355 357 358 359 0 2 3 4 6
286 291 297 302 307 311 317 323 327 330 333 333 333 334 334 336 338 341 343 344 345 345 346 346 347 348 348 349 349 350 352 352 352 353 353 354 355 356 357 359 0 1 3 4
283 288 293 298 303 308 314 320 324 327 330 331 331 332 332 334 336 339 341 343 344 344 345 345 346 346 347 348 348 348 349 351 351 352 352 353 354 355 357 358 359 0 1 3
279 285 289 295 300 305 311 317 320 324 327 328 328 329 330 332 334 336 339 341 342 343 343 344 344 345 346 347 347 347 347 348 350 351 351 352 353 354 355 357 358 359 360 1
276 281 286 291 297 302 308 313 317 321 324 325 326 327 328 330 332 334 337 339 340 341 342 343 343 344 345 345 346 345 346 347 348 349 350 351 352 353 354 356 357 358 359 0
273 278 283 289 294 299 305 310 313 318 321 322 323 324 325 327 330 332 335 338 339 340 341 341 342 343 344 344 345 344 344 345 346 347 348 350 351 352 353 355 356 358 359 360
270 275 280 286 291 296 302 306 310 314 317 318 319 321 323 325 328 331 333 336 337 338 339 340 341 342 342 343 344 344 343 343 344 345 347 348 350 351 353 354 355 357 359 360